Time,TemperatureF,DewpointF,PressureIn,WindDirection,WindDirectionDegrees,WindSpeedMPH,WindSpeedGustMPH,Humidity,HourlyPrecipIn,Conditions,Clouds,dailyrainin,SoftwareType,DateUTC
2013-11-28 00:05:00,36.6,32.8,30.27,North,32767,0.0,3.0,86,0.00,,,0.00,Wunderground v.1.15,2013-11-28 05:05:00,
2013-11-28 00:10:00,36.5,32.7,30.27,North,32767,0.0,3.0,86,0.00,,,0.00,Wunderground v.1.15,2013-11-28 05:10:00,
2013-11-28 00:20:00,36.2,32.4,30.27,North,32767,0.0,3.0,86,0.00,,,0.00,Wunderground v.1.15,2013-11-28 05:20:00,
2013-11-28 00:30:00,35.9,32.4,30.27,North,32767,0.0,0.0,87,0.00,,,0.00,Wunderground v.1.15,2013-11-28 05:30:00,
2013-11-28 00:35:00,35.6,32.1,30.27,North,32767,0.0,0.0,87,0.00,,,0.00,Wunderground v.1.15,2013-11-28 05:35:00,
2013-11-28 00:45:00,35.1,31.6,30.27,North,32767,0.0,0.0,87,0.00,,,0.00,Wunderground v.1.15,2013-11-28 05:45:00,
2013-11-28 00:50:00,34.9,31.7,30.27,North,32767,0.0,0.0,88,0.00,,,0.00,Wunderground v.1.15,2013-11-28 05:50:00,
2013-11-28 01:00:00,34.7,31.5,30.27,North,32767,0.0,0.0,88,0.00,,,0.00,Wunderground v.1.15,2013-11-28 06:00:00,
2013-11-28 01:05:00,34.8,31.6,30.27,North,32767,0.0,4.0,88,0.00,,,0.00,Wunderground v.1.15,2013-11-28 06:05:00,
2013-11-28 01:10:00,34.8,31.3,30.27,North,32767,0.0,4.0,87,0.00,,,0.00,Wunderground v.1.15,2013-11-28 06:10:00,
2013-11-28 01:20:00,34.7,31.2,30.28,North,32767,0.0,4.0,87,0.00,,,0.00,Wunderground v.1.15,2013-11-28 06:20:00,
2013-11-28 01:30:00,34.3,30.8,30.28,North,32767,0.0,0.0,87,0.00,,,0.00,Wunderground v.1.15,2013-11-28 06:30:00,
2013-11-28 01:40:00,33.8,30.6,30.28,North,32767,0.0,0.0,88,0.00,,,0.00,Wunderground v.1.15,2013-11-28 06:40:00,
2013-11-28 01:45:00,33.3,30.4,30.28,North,32767,0.0,0.0,89,0.00,,,0.00,Wunderground v.1.15,2013-11-28 06:45:00,
2013-11-28 01:55:00,32.7,30.1,30.29,North,32767,0.0,0.0,90,0.00,,,0.00,Wunderground v.1.15,2013-11-28 06:55:00,
2013-11-28 02:00:00,32.5,30.2,30.29,North,32767,0.0,0.0,91,0.00,,,0.00,Wunderground v.1.15,2013-11-28 07:00:00,
2013-11-28 02:10:00,32.0,29.9,30.29,North,32767,0.0,2.0,92,0.00,,,0.00,Wunderground v.1.15,2013-11-28 07:10:00,
2013-11-28 02:15:00,31.9,30.1,30.29,North,32767,0.0,2.0,93,0.00,,,0.00,Wunderground v.1.15,2013-11-28 07:15:00,
2013-11-28 02:25:00,31.5,29.7,30.29,North,32767,0.0,2.0,93,0.00,,,0.00,Wunderground v.1.15,2013-11-28 07:25:00,
2013-11-28 02:30:00,31.3,29.8,30.29,North,32767,0.0,0.0,94,0.00,,,0.00,Wunderground v.1.15,2013-11-28 07:30:00,
2013-11-28 02:40:00,31.7,30.2,30.29,North,32767,0.0,1.0,94,0.00,,,0.00,Wunderground v.1.15,2013-11-28 07:40:00,
2013-11-28 02:50:00,31.8,30.3,30.29,North,32767,0.0,0.0,94,0.00,,,0.00,Wunderground v.1.15,2013-11-28 07:50:00,
2013-11-28 03:00:00,32.1,30.6,30.29,North,32767,0.0,0.0,94,0.00,,,0.00,Wunderground v.1.15,2013-11-28 08:00:00,
2013-11-28 03:10:00,32.2,30.4,30.29,North,32767,1.0,1.0,93,0.00,,,0.00,Wunderground v.1.15,2013-11-28 08:10:00,
2013-11-28 03:20:00,32.5,30.2,30.29,North,32767,1.0,1.0,91,0.00,,,0.00,Wunderground v.1.15,2013-11-28 08:20:00,
2013-11-28 03:30:00,32.4,29.8,30.29,North,32767,1.0,1.0,90,0.00,,,0.00,Wunderground v.1.15,2013-11-28 08:30:00,
2013-11-28 03:35:00,32.4,29.8,30.29,North,32767,1.0,1.0,90,0.00,,,0.00,Wunderground v.1.15,2013-11-28 08:35:00,
2013-11-28 03:45:00,32.4,29.5,30.29,North,32767,1.0,2.0,89,0.00,,,0.00,Wunderground v.1.15,2013-11-28 08:45:00,
2013-11-28 03:55:00,32.2,29.3,30.29,North,32767,1.0,2.0,89,0.00,,,0.00,Wunderground v.1.15,2013-11-28 08:55:00,
2013-11-28 04:05:00,32.1,28.9,30.29,North,32767,1.0,2.0,88,0.00,,,0.00,Wunderground v.1.15,2013-11-28 09:05:00,
2013-11-28 04:15:00,32.1,28.9,30.30,North,32767,1.0,2.0,88,0.00,,,0.00,Wunderground v.1.15,2013-11-28 09:15:00,
2013-11-28 04:25:00,32.0,28.8,30.30,North,32767,0.0,2.0,88,0.00,,,0.00,Wunderground v.1.15,2013-11-28 09:25:00,
2013-11-28 04:35:00,31.8,28.4,30.31,North,32767,1.0,1.0,87,0.00,,,0.00,Wunderground v.1.15,2013-11-28 09:35:00,
2013-11-28 04:40:00,31.7,28.3,30.31,North,32767,0.0,0.0,87,0.00,,,0.00,Wunderground v.1.15,2013-11-28 09:40:00,
2013-11-28 04:45:00,31.6,28.5,30.31,North,32767,0.0,0.0,88,0.00,,,0.00,Wunderground v.1.15,2013-11-28 09:45:00,
2013-11-28 04:55:00,31.4,28.3,30.31,North,32767,1.0,1.0,88,0.00,,,0.00,Wunderground v.1.15,2013-11-28 09:55:00,
2013-11-28 05:05:00,31.2,28.1,30.32,North,32767,0.0,5.0,88,0.00,,,0.00,Wunderground v.1.15,2013-11-28 10:05:00,
2013-11-28 05:15:00,30.9,28.0,30.32,North,32767,0.0,5.0,89,0.00,,,0.00,Wunderground v.1.15,2013-11-28 10:15:00,
2013-11-28 05:25:00,30.7,27.8,30.33,North,32767,0.0,5.0,89,0.00,,,0.00,Wunderground v.1.15,2013-11-28 10:25:00,
2013-11-28 05:35:00,30.5,27.9,30.33,North,32767,0.0,1.0,90,0.00,,,0.00,Wunderground v.1.15,2013-11-28 10:35:00,
2013-11-28 05:45:00,30.2,27.6,30.33,North,32767,0.0,0.0,90,0.00,,,0.00,Wunderground v.1.15,2013-11-28 10:45:00,
2013-11-28 05:50:00,30.0,27.4,30.33,North,32767,0.0,0.0,90,0.00,,,0.00,Wunderground v.1.15,2013-11-28 10:50:00,
2013-11-28 06:00:00,30.0,27.7,30.34,North,32767,0.0,0.0,91,0.00,,,0.00,Wunderground v.1.15,2013-11-28 11:00:00,
2013-11-28 06:05:00,30.0,27.7,30.35,North,32767,0.0,5.0,91,0.00,,,0.00,Wunderground v.1.15,2013-11-28 11:05:00,
2013-11-28 06:15:00,29.9,27.6,30.35,North,32767,0.0,5.0,91,0.00,,,0.00,Wunderground v.1.15,2013-11-28 11:15:00,
2013-11-28 06:20:00,29.8,27.5,30.35,North,32767,0.0,5.0,91,0.00,,,0.00,Wunderground v.1.15,2013-11-28 11:20:00,
2013-11-28 06:30:00,29.7,27.1,30.36,North,32767,0.0,1.0,90,0.00,,,0.00,Wunderground v.1.15,2013-11-28 11:30:00,
2013-11-28 06:40:00,29.6,27.3,30.36,North,32767,0.0,0.0,91,0.00,,,0.00,Wunderground v.1.15,2013-11-28 11:40:00,
2013-11-28 06:45:00,29.4,27.1,30.37,North,32767,0.0,0.0,91,0.00,,,0.00,Wunderground v.1.15,2013-11-28 11:45:00,
2013-11-28 06:55:00,29.2,26.9,30.37,North,32767,0.0,0.0,91,0.00,,,0.00,Wunderground v.1.15,2013-11-28 11:55:00,
2013-11-28 07:05:00,29.0,26.7,30.38,North,32767,0.0,2.0,91,0.00,,,0.00,Wunderground v.1.15,2013-11-28 12:05:00,
2013-11-28 07:15:00,28.7,26.7,30.39,North,32767,0.0,2.0,92,0.00,,,0.00,Wunderground v.1.15,2013-11-28 12:15:00,
2013-11-28 07:25:00,28.4,26.6,30.39,North,32767,0.0,2.0,93,0.00,,,0.00,Wunderground v.1.15,2013-11-28 12:25:00,
2013-11-28 18:25:00,47.2,42.9,30.43,North,32767,1.0,1.0,85,0.00,,,0.00,Wunderground v.1.15,2013-11-28 23:25:00,
2013-11-28 18:30:00,47.2,42.9,30.43,North,32767,1.0,1.0,85,0.00,,,0.00,Wunderground v.1.15,2013-11-28 23:30:00,
2013-11-28 18:35:00,47.4,42.5,30.43,North,32767,2.0,3.0,83,0.00,,,0.00,Wunderground v.1.15,2013-11-28 23:35:00,
2013-11-28 18:45:00,47.1,42.2,30.44,North,32767,1.0,1.0,83,0.00,,,0.00,Wunderground v.1.15,2013-11-28 23:45:00,
2013-11-28 18:55:00,47.0,42.1,30.44,North,32767,1.0,1.0,83,0.00,,,0.00,Wunderground v.1.15,2013-11-28 23:55:00,
2013-11-28 19:05:00,46.4,41.8,30.44,North,32767,0.0,2.0,84,0.00,,,0.00,Wunderground v.1.15,2013-11-29 00:05:00,
2013-11-28 19:10:00,46.4,42.1,30.44,North,32767,0.0,2.0,85,0.00,,,0.00,Wunderground v.1.15,2013-11-29 00:10:00,
2013-11-28 19:20:00,46.9,42.0,30.44,North,32767,2.0,3.0,83,0.00,,,0.00,Wunderground v.1.15,2013-11-29 00:20:00,
2013-11-28 19:25:00,46.9,42.0,30.44,North,32767,3.0,3.0,83,0.00,,,0.00,Wunderground v.1.15,2013-11-29 00:25:00,
2013-11-28 19:35:00,46.9,42.0,30.44,North,32767,4.0,4.0,83,0.00,,,0.00,Wunderground v.1.15,2013-11-29 00:35:00,
2013-11-28 19:45:00,46.7,41.8,30.44,North,32767,3.0,4.0,83,0.00,,,0.00,Wunderground v.1.15,2013-11-29 00:45:00,
2013-11-28 19:55:00,46.2,41.6,30.44,North,32767,2.0,4.0,84,0.00,,,0.00,Wunderground v.1.15,2013-11-29 00:55:00,
2013-11-28 20:05:00,45.9,41.6,30.45,North,32767,1.0,6.0,85,0.00,,,0.00,Wunderground v.1.15,2013-11-29 01:05:00,
2013-11-28 20:15:00,45.5,41.6,30.46,North,32767,0.0,6.0,86,0.00,,,0.00,Wunderground v.1.15,2013-11-29 01:15:00,
2013-11-28 20:20:00,45.3,41.4,30.46,North,32767,1.0,6.0,86,0.00,,,0.00,Wunderground v.1.15,2013-11-29 01:20:00,
2013-11-28 20:30:00,44.8,40.9,30.45,North,32767,1.0,1.0,86,0.00,,,0.00,Wunderground v.1.15,2013-11-29 01:30:00,
2013-11-28 20:40:00,44.2,40.6,30.46,North,32767,0.0,0.0,87,0.00,,,0.00,Wunderground v.1.15,2013-11-29 01:40:00,
2013-11-28 20:50:00,44.1,40.5,30.46,North,32767,1.0,1.0,87,0.00,,,0.00,Wunderground v.1.15,2013-11-29 01:50:00,
2013-11-28 20:55:00,43.9,40.6,30.46,North,32767,1.0,1.0,88,0.00,,,0.00,Wunderground v.1.15,2013-11-29 01:55:00,
2013-11-28 21:05:00,43.5,40.5,30.46,North,32767,0.0,7.0,89,0.00,,,0.00,Wunderground v.1.15,2013-11-29 02:05:00,
2013-11-28 21:10:00,43.3,40.3,30.46,North,32767,0.0,7.0,89,0.00,,,0.00,Wunderground v.1.15,2013-11-29 02:10:00,
2013-11-28 21:20:00,43.2,40.2,30.46,North,32767,0.0,7.0,89,0.00,,,0.00,Wunderground v.1.15,2013-11-29 02:20:00,
2013-11-28 21:25:00,43.1,40.1,30.47,North,32767,0.0,7.0,89,0.00,,,0.00,Wunderground v.1.15,2013-11-29 02:25:00,
2013-11-28 21:35:00,42.9,39.9,30.47,North,32767,0.0,0.0,89,0.00,,,0.00,Wunderground v.1.15,2013-11-29 02:35:00,
2013-11-28 21:40:00,42.9,39.9,30.47,North,32767,0.0,1.0,89,0.00,,,0.00,Wunderground v.1.15,2013-11-29 02:40:00,
2013-11-28 21:50:00,42.8,39.8,30.47,North,32767,1.0,1.0,89,0.00,,,0.00,Wunderground v.1.15,2013-11-29 02:50:00,
2013-11-28 21:55:00,42.7,39.7,30.47,North,32767,1.0,1.0,89,0.00,,,0.00,Wunderground v.1.15,2013-11-29 02:55:00,
2013-11-28 22:05:00,42.5,39.5,30.47,North,32767,1.0,3.0,89,0.00,,,0.00,Wunderground v.1.15,2013-11-29 03:05:00,
2013-11-28 22:10:00,42.5,39.5,30.47,North,32767,0.0,3.0,89,0.00,,,0.00,Wunderground v.1.15,2013-11-29 03:10:00,
2013-11-28 22:20:00,42.1,39.1,30.47,North,32767,0.0,3.0,89,0.00,,,0.00,Wunderground v.1.15,2013-11-29 03:20:00,
2013-11-28 22:25:00,42.0,39.3,30.47,North,32767,0.0,3.0,90,0.00,,,0.00,Wunderground v.1.15,2013-11-29 03:25:00,
2013-11-28 22:35:00,41.8,39.1,30.47,North,32767,0.0,0.0,90,0.00,,,0.00,Wunderground v.1.15,2013-11-29 03:35:00,
2013-11-28 22:40:00,41.8,39.1,30.47,North,32767,0.0,0.0,90,0.00,,,0.00,Wunderground v.1.15,2013-11-29 03:40:00,
2013-11-28 22:50:00,41.4,38.4,30.46,North,32767,1.0,1.0,89,0.00,,,0.00,Wunderground v.1.15,2013-11-29 03:50:00,
2013-11-28 23:00:00,41.2,38.2,30.46,North,32767,0.0,1.0,89,0.00,,,0.00,Wunderground v.1.15,2013-11-29 04:00:00,
2013-11-28 23:05:00,41.0,38.0,30.46,North,32767,0.0,3.0,89,0.00,,,0.00,Wunderground v.1.15,2013-11-29 04:05:00,
2013-11-28 23:15:00,40.8,37.8,30.46,North,32767,0.0,3.0,89,0.00,,,0.00,Wunderground v.1.15,2013-11-29 04:15:00,
2013-11-28 23:25:00,40.6,37.6,30.47,North,32767,0.0,3.0,89,0.00,,,0.00,Wunderground v.1.15,2013-11-29 04:25:00,
2013-11-28 23:35:00,40.1,36.8,30.46,North,32767,0.0,0.0,88,0.00,,,0.00,Wunderground v.1.15,2013-11-29 04:35:00,
2013-11-28 23:45:00,39.7,36.7,30.45,North,32767,0.0,0.0,89,0.00,,,0.00,Wunderground v.1.15,2013-11-29 04:45:00,
2013-11-28 23:55:00,39.6,36.6,30.46,North,32767,0.0,0.0,89,0.00,,,0.00,Wunderground v.1.15,2013-11-29 04:55:00,